Weather reports worldwide

Advertisment
Shoreham Airport, United Kingdom (3876): temperature & dewpoint: 19.02.2018 08:00:00 - 25.02.2018 08:00:00 (GMT)Shoreham Airport, United Kingdom (3876): wind speed & gusts: 19.02.2018 08:00:00 - 25.02.2018 08:00:00 (GMT)Shoreham Airport, United Kingdom (3876): wind direction: 19.02.2018 08:00:00 - 25.02.2018 08:00:00 (GMT)Shoreham Airport, United Kingdom (3876): reduced air pressure: 19.02.2018 08:00:00 - 25.02.2018 08:00:00 (GMT)Shoreham Airport, United Kingdom (3876): visibility: 19.02.2018 08:00:00 - 25.02.2018 08:00:00 (GMT)Shoreham Airport, United Kingdom (3876): precipitation: 19.02.2018 08:00:00 - 25.02.2018 08:00:00 (GMT)
Date & Time tt [°C] td [°C] ff [km/h] ff [kn] fx [km/h] fx [kn] dd ppp [hPa] vv [km] rr [mm]
25.02.2018 08:00:00 - - - - - - - - - -
25.02.2018 07:00:00 -2,6 -6,1 9 5 - - NNE 1025,9 - 0,0
25.02.2018 06:00:00 -1,9 -5,5 13 7 - - NNE 1025,4 - 0,0
25.02.2018 05:00:00 -1,1 -6,0 16 9 - - NE 1024,9 - 0,0
25.02.2018 04:00:00 -0,5 -5,7 18 10 - - ENE 1024,6 - 0,0
25.02.2018 03:00:00 -0,3 -5,6 16 9 - - ENE 1024,3 - 0,0
25.02.2018 02:00:00 0,3 -4,9 16 9 - - ENE 1024,2 - 0,0
25.02.2018 01:00:00 0,7 -3,2 15 8 - - ENE 1023,8 - 0,0
25.02.2018 00:00:00 0,5 -2,7 16 9 - - NNE 1023,7 - 0,0
24.02.2018 23:00:00 0,9 -2,9 13 7 - - NE 1023,3 - 0,0
24.02.2018 22:00:00 1,8 -2,7 18 10 - - ENE 1022,9 - 0,0
24.02.2018 21:00:00 2,1 -3,0 21 11 - - ENE 1022,3 - 0,0
24.02.2018 20:00:00 2,0 -3,8 16 9 - - ENE 1021,9 10 0,0
24.02.2018 19:00:00 2,1 -4,5 15 8 - - NE 1021,6 10 0,0
24.02.2018 18:00:00 2,9 -5,3 21 11 - - NE 1021,0 10 0,0
24.02.2018 17:00:00 4,0 -5,2 21 11 - - NE 1020,6 10 0,0
24.02.2018 16:00:00 4,9 -5,6 28 15 - - NE 1020,4 10 0,0
24.02.2018 15:00:00 5,7 -3,1 24 13 - - ENE 1020,2 10 0,0
24.02.2018 14:00:00 5,8 -2,2 26 14 - - NE 1020,0 10 0,0
24.02.2018 13:00:00 5,1 -2,6 28 15 - - NE 1020,3 10 0,0
24.02.2018 12:00:00 4,4 -2,3 26 14 - - NNE 1020,2 9 0,0
24.02.2018 11:00:00 3,3 -2,2 24 13 - - NE 1020,3 9 0,0
24.02.2018 10:00:00 2,0 -3,3 21 11 - - NE 1020,4 10 0,0
24.02.2018 09:00:00 0,8 -3,6 18 10 - - NE 1020,3 9 0,0
24.02.2018 08:00:00 -1,0 -3,9 15 8 - - NNE 1020,1 - 0,0
24.02.2018 07:00:00 -1,9 -4,8 15 8 - - NE 1019,6 - 0,0
24.02.2018 06:00:00 -2,5 -5,3 13 7 - - NE 1019,1 - 0,0
24.02.2018 05:00:00 -1,7 -5,0 16 9 - - NNE 1019,2 - 0,0
24.02.2018 04:00:00 -1,6 -4,9 15 8 - - NE 1019,0 - 0,0
24.02.2018 03:00:00 -1,1 -4,7 18 10 - - NNE 1018,8 - 0,0
24.02.2018 02:00:00 -2,6 -5,1 15 8 - - N 1018,9 - 0,0
24.02.2018 01:00:00 -2,6 -5,3 11 6 - - N 1019,0 - 0,0
24.02.2018 00:00:00 -1,3 -4,9 13 7 - - NNE 1018,8 - 0,0
23.02.2018 23:00:00 -0,8 -4,2 13 7 - - NE 1018,8 - 0,0
23.02.2018 22:00:00 -0,5 -3,3 13 7 - - NE 1018,8 - 0,0
23.02.2018 21:00:00 0,0 -3,1 16 9 - - NE 1018,8 - 0,0
23.02.2018 20:00:00 0,4 -3,3 5 3 - - NE 1018,6 10 0,0
23.02.2018 19:00:00 0,7 -3,5 16 9 - - NE 1018,9 10 0,0
23.02.2018 18:00:00 1,0 -4,0 15 8 - - NE 1018,6 10 0,0
23.02.2018 17:00:00 2,7 -2,9 18 10 - - NE 1018,7 10 0,0
23.02.2018 16:00:00 3,6 -2,7 28 15 - - NE 1018,6 10 0,0
23.02.2018 15:00:00 4,4 -3,2 26 14 - - ENE 1019,1 10 0,0
23.02.2018 14:00:00 4,9 -3,0 28 15 46 25 ENE 1019,4 10 0,0
23.02.2018 13:00:00 5,3 -2,8 26 14 - - E 1020,1 10 0,0
23.02.2018 12:00:00 3,7 -3,6 31 17 - - ENE 1021,0 10 0,0
23.02.2018 11:00:00 4,3 -2,7 28 15 - - E 1021,2 10 0,0
23.02.2018 10:00:00 2,7 -3,7 21 11 - - ENE 1021,4 10 0,0
23.02.2018 09:00:00 1,4 -3,0 16 9 - - NE 1021,4 9 0,0
23.02.2018 08:00:00 -0,2 -3,5 13 7 - - NNE 1021,4 8 0,0
23.02.2018 07:00:00 -1,6 -4,2 11 6 - - NNE 1021,2 - 0,0
23.02.2018 06:00:00 -1,8 -3,8 11 6 - - NNE 1021,1 - 0,0
23.02.2018 05:00:00 -0,8 -3,5 15 8 - - NNE 1021,0 - 0,0
23.02.2018 04:00:00 -0,4 -3,0 16 9 - - NNE 1021,0 - 0,0
23.02.2018 03:00:00 -0,1 -3,3 13 7 - - NNE 1021,3 - 0,0
23.02.2018 02:00:00 1,2 -2,6 13 7 - - NNE 1021,6 - 0,0
23.02.2018 01:00:00 1,5 -2,5 15 8 - - ENE 1021,3 - 0,0
23.02.2018 00:00:00 1,4 -1,9 15 8 - - NE 1021,8 - 0,0
22.02.2018 23:00:00 -0,5 -3,2 15 8 - - N 1022,0 - 0,0
22.02.2018 22:00:00 1,3 -2,3 13 7 - - NNE 1022,2 - 0,0
22.02.2018 21:00:00 1,1 -3,1 15 8 - - NNE 1022,3 - 0,0
22.02.2018 20:00:00 1,3 -4,0 16 9 - - NNE 1022,3 10 0,0
22.02.2018 19:00:00 1,5 -4,3 15 8 - - NNE 1022,2 10 0,0
22.02.2018 18:00:00 1,8 -5,0 13 7 - - NE 1022,2 10 0,0
22.02.2018 17:00:00 4,6 -5,2 21 11 - - ENE 1021,9 10 0,0
22.02.2018 16:00:00 5,5 -4,5 21 11 - - ENE 1021,9 - 0,0
22.02.2018 15:00:00 6,0 -2,9 22 12 - - ENE 1022,1 10 0,0
22.02.2018 14:00:00 5,8 -2,3 22 12 - - NE 1022,6 9 0,0
22.02.2018 13:00:00 6,0 -1,2 22 12 - - ENE 1023,1 9 0,0
22.02.2018 12:00:00 5,3 -1,4 24 13 - - NE 1023,4 8 0,0
22.02.2018 11:00:00 4,3 -2,2 24 13 - - NE 1023,7 7 0,0
22.02.2018 10:00:00 3,9 -1,9 24 13 - - NE 1023,7 6 0,0
22.02.2018 09:00:00 3,0 -2,0 15 8 - - NE 1023,8 6 0,0
22.02.2018 08:00:00 2,2 -2,0 15 8 - - NE 1023,8 7 0,0
22.02.2018 07:00:00 2,1 -1,0 13 7 - - NE 1023,6 - 0,0
22.02.2018 06:00:00 0,3 -1,3 9 5 - - NNE 1023,4 - 0,0
22.02.2018 05:00:00 2,0 -0,8 9 5 - - NE 1023,3 - 0,0
22.02.2018 04:00:00 3,2 0,7 13 7 - - NE 1023,4 - 0,0
22.02.2018 03:00:00 3,7 2,1 11 6 - - NE 1023,7 - 0,0
22.02.2018 02:00:00 4,0 2,2 13 7 - - NNE 1024,1 - 0,0
22.02.2018 01:00:00 4,3 1,9 11 6 - - NNE 1024,2 - 0,0
22.02.2018 00:00:00 4,4 1,8 11 6 - - NNE 1024,6 - 0,0
21.02.2018 23:00:00 4,5 1,7 11 6 - - NNE 1024,9 - 0,0
21.02.2018 22:00:00 4,8 1,5 13 7 - - NNE 1025,2 - 0,0
21.02.2018 21:00:00 5,0 1,8 13 7 - - NNE 1025,5 - 0,0
21.02.2018 20:00:00 5,0 1,6 9 5 - - NNE 1025,5 5 0,0
21.02.2018 19:00:00 5,3 1,3 13 7 - - NNE 1025,3 5 0,0
21.02.2018 18:00:00 5,2 1,1 11 6 - - NNE 1025,2 5 0,0
21.02.2018 17:00:00 5,6 1,0 15 8 - - NNE 1025,0 8 0,0
21.02.2018 16:00:00 6,6 0,8 18 10 - - NNE 1024,9 9 0,0
21.02.2018 15:00:00 7,3 1,4 16 9 - - N 1025,2 9 0,0
21.02.2018 14:00:00 7,2 1,0 16 9 - - N 1025,9 9 0,0
21.02.2018 13:00:00 7,1 1,1 21 11 - - NNE 1026,7 8 0,0
21.02.2018 12:00:00 6,4 0,9 21 11 - - NNE 1027,2 5 0,0
21.02.2018 11:00:00 5,4 1,2 22 12 - - NNE 1027,3 3,2 0,0
21.02.2018 10:00:00 4,2 1,8 13 7 - - N 1027,4 3,0 0,0
21.02.2018 09:00:00 2,4 0,9 4 2 - - - 1027,1 2,5 0,0
21.02.2018 08:00:00 1,0 -0,1 11 6 - - WSW 1026,8 2,5 0,0
21.02.2018 07:00:00 0,9 -0,6 16 9 - - N 1026,3 - 0,0
21.02.2018 06:00:00 2,0 0,1 21 11 - - N 1026,2 - 0,0
21.02.2018 05:00:00 2,5 0,7 18 10 - - NNE 1026,0 - 0,0
21.02.2018 04:00:00 2,7 0,9 15 8 - - N 1026,0 - 0,0
21.02.2018 03:00:00 3,9 1,6 15 8 - - N 1025,8 - 0,0
21.02.2018 02:00:00 5,1 2,4 18 10 - - NNE 1025,6 - 0,0
21.02.2018 01:00:00 5,5 2,7 24 13 - - NNE 1025,1 - 0,0
21.02.2018 00:00:00 6,0 3,2 21 11 - - NNE 1024,5 - 0,0
20.02.2018 23:00:00 6,3 2,9 24 13 46 25 NNE 1023,9 - 0,0
20.02.2018 22:00:00 7,1 3,8 28 15 - - N 1023,0 - 0,0
20.02.2018 21:00:00 7,5 3,6 29 16 52 28 N 1022,0 - 0,0
20.02.2018 20:00:00 7,7 3,4 29 16 55 30 N 1021,7 10 0,0
20.02.2018 19:00:00 8,3 3,5 26 14 - - N 1021,3 10 0,0
20.02.2018 18:00:00 7,6 4,0 16 9 - - N 1021,0 10 0,0
20.02.2018 17:00:00 7,9 3,9 22 12 - - N 1021,1 10 0,0
20.02.2018 16:00:00 8,9 2,8 24 13 - - NNW 1020,4 10 0,0
20.02.2018 15:00:00 8,9 3,2 28 15 48 26 N 1020,3 10 0,0
20.02.2018 14:00:00 9,2 4,2 28 15 48 26 N 1020,2 10 0,0
20.02.2018 13:00:00 10,2 6,4 28 15 - - N 1019,8 10 0,0
20.02.2018 12:00:00 8,3 6,1 26 14 - - NNW 1020,1 10 0,0
20.02.2018 11:00:00 7,9 6,5 24 13 - - NNW 1019,9 6 0,4
20.02.2018 10:00:00 8,5 6,7 22 12 - - NW 1019,4 10 0,0
20.02.2018 09:00:00 9,5 7,8 13 7 - - NW 1018,7 8 0,0
20.02.2018 08:00:00 9,3 7,6 15 8 - - NNW 1018,6 6 0,0
20.02.2018 07:00:00 9,3 7,9 15 8 - - NNW 1018,0 - 0,0
20.02.2018 06:00:00 9,4 8,1 13 7 - - NNW 1017,7 - 0,0
20.02.2018 05:00:00 9,5 8,2 16 9 - - NNW 1017,4 - 0,0
20.02.2018 04:00:00 9,6 8,3 16 9 - - NNW 1017,2 - 0,0
20.02.2018 03:00:00 9,6 8,4 16 9 - - NNW 1016,8 - 0,0
20.02.2018 02:00:00 9,5 8,6 15 8 - - NNW 1016,6 - 0,0
20.02.2018 01:00:00 9,8 8,6 18 10 - - NW 1016,7 - 0,0
20.02.2018 00:00:00 10,1 8,5 15 8 - - NNW 1016,5 - 0,0
19.02.2018 23:00:00 10,2 8,6 9 5 - - NNW 1016,3 - 0,0
19.02.2018 22:00:00 10,4 8,5 15 8 - - NNW 1016,0 - 0,0
19.02.2018 21:00:00 10,5 8,7 15 8 - - NNW 1016,1 - 0,0
19.02.2018 20:00:00 10,7 8,9 15 8 - - NNW 1016,2 7 0,0
19.02.2018 19:00:00 10,6 9,6 13 7 - - NW 1016,3 5 0,0
19.02.2018 18:00:00 11,0 9,7 15 8 - - NW 1015,9 6 0,0
19.02.2018 17:00:00 11,1 9,8 13 7 - - WNW 1015,7 10 0,0
19.02.2018 16:00:00 11,2 10,0 13 7 - - WNW 1015,8 10 0,0
19.02.2018 15:00:00 10,9 10,1 13 7 - - WNW 1016,0 7 0,0
19.02.2018 14:00:00 10,5 10,2 11 6 - - WNW 1016,1 4,0 0,0
19.02.2018 13:00:00 9,4 9,2 8 4 - - WSW 1016,5 3,2 0,0
19.02.2018 12:00:00 8,7 8,5 11 6 - - WSW 1017,1 4,8 0,0
19.02.2018 11:00:00 8,1 8,0 13 7 - - WSW 1017,3 1,6 0,0
19.02.2018 10:00:00 7,7 7,6 11 6 - - WSW 1017,5 1,4 0,2
19.02.2018 09:00:00 7,5 7,4 9 5 - - WSW 1017,7 1,6 0,2
19.02.2018 08:00:00 7,3 7,2 5 3 - - SW 1017,7 0,9 0,0

tt = temperature
td = dewpoint
ff = wind speed
fx = gusts
dd = wind direction
ppp = reduced air pressure
vv = visibility
rr = precipitation

Next stations